Location: Newark
(42.8481°N, 0.4872°E)
Time: 14:08:56
(UTC+00:00)

Explorer 7 - All Passes

Search period start: 30 October 2020 00:00
Search period end: 09 November 2020 00:00
Orbit: 484 x 678 km, 50.3° (Epoch: 30 October)

Date Brightness Start Highest point End Pass type
(mag) Time Alt. Az. Time Alt. Az. Time Alt. Az.
30 Oct - 12:19:18 10° SSW 12:22:45 36° SE 12:26:14 10° ENE daylight
30 Oct - 13:59:33 10° W 14:03:09 45° NNW 14:06:51 10° NE daylight
30 Oct - 15:41:00 10° WNW 15:44:15 26° N 15:47:37 10° ENE daylight
30 Oct - 17:21:41 10° NW 17:25:24 41° NNE 17:29:17 10° E visible
30 Oct - 19:02:05 10° WNW 19:05:57 49° SW 19:10:03 10° SE visible
31 Oct - 12:23:40 10° SW 12:27:22 60° SE 12:31:05 10° ENE daylight
31 Oct - 14:04:30 10° W 14:07:59 35° NNW 14:11:32 10° NE daylight
31 Oct - 15:45:53 10° NW 15:49:10 27° N 15:52:34 10° ENE daylight
31 Oct - 17:26:21 10° NW 17:30:11 55° NNE 17:34:14 10° ESE visible
31 Oct - 19:07:00 10° WNW 19:10:33 31° SW 19:14:17 10° SSE visible
01 Nov - 10:49:43 10° S 10:52:01 16° SE 10:54:19 10° E daylight
01 Nov - 12:28:16 10° WSW 12:32:02 86° NNW 12:35:48 10° ENE daylight
01 Nov - 14:09:31 10° WNW 14:12:51 29° N 14:16:15 10° NE daylight
01 Nov - 15:50:41 10° NW 15:54:04 29° N 15:57:34 10° ENE daylight
01 Nov - 17:31:02 10° WNW 17:34:56 80° NNE 17:39:02 10° ESE visible
01 Nov - 19:12:10 10° W 19:15:05 19° SW 19:18:07 10° S visible
02 Nov - 10:53:20 10° SSW 10:56:31 26° SE 10:59:40 10° E daylight
02 Nov - 12:33:03 10° WSW 12:36:46 57° NNW 12:40:29 10° NE daylight
02 Nov - 14:14:31 10° WNW 14:17:45 26° N 14:21:03 10° NE daylight
02 Nov - 15:55:25 10° NW 15:58:57 34° NNE 16:02:35 10° E daylight
02 Nov - 17:35:45 10° WNW 17:39:36 68° SW 17:43:41 10° SE visible
02 Nov - 19:18:07 10° WSW 19:19:34 12° SW 19:21:03 10° SSW visible
03 Nov - 10:57:28 10° SSW 11:01:05 42° SE 11:04:39 10° ENE daylight
03 Nov - 12:37:58 10° W 12:41:33 41° NNW 12:45:09 10° NE daylight
03 Nov - 14:19:27 10° WNW 14:22:39 26° N 14:25:56 10° ENE daylight
03 Nov - 16:00:06 10° NW 16:03:46 44° NNE 16:07:34 10° E daylight
03 Nov - 17:40:33 10° WNW 17:44:14 42° SW 17:48:07 10° SSE visible
04 Nov - 09:24:50 10° SE 09:25:50 11° SE 09:26:48 10° ESE daylight
04 Nov - 11:01:56 10° SW 11:05:42 70° SE 11:09:26 10° ENE daylight
04 Nov - 12:42:57 10° W 12:46:23 33° NNW 12:49:50 10° NE daylight
04 Nov - 14:24:19 10° NW 14:27:34 27° N 14:30:53 10° ENE daylight
04 Nov - 16:04:45 10° NW 16:08:32 60° NNE 16:12:28 10° ESE daylight
04 Nov - 17:45:31 10° W 17:48:48 26° SW 17:52:14 10° SSE visible
05 Nov - 09:27:34 10° S 09:30:17 18° SE 09:32:57 10° E daylight
05 Nov - 11:06:35 10° WSW 11:10:23 76° NNW 11:14:08 10° ENE daylight
05 Nov - 12:47:57 10° WNW 12:51:15 28° N 12:54:33 10° NE daylight
05 Nov - 14:29:05 10° NW 14:32:27 30° NNE 14:35:53 10° ENE daylight
05 Nov - 16:09:26 10° WNW 16:13:14 89° N 16:17:14 10° ESE daylight
05 Nov - 17:50:51 10° W 17:53:19 16° SW 17:55:52 10° S visible
06 Nov - 09:31:23 10° SSW 09:34:48 30° SE 09:38:08 10° ENE daylight
06 Nov - 11:11:24 10° WSW 11:15:07 52° NNW 11:18:48 10° NE daylight
06 Nov - 12:52:56 10° WNW 12:56:09 26° N 12:59:22 10° NE daylight
06 Nov - 14:33:47 10° NW 14:37:18 36° NNE 14:40:53 10° E daylight
06 Nov - 16:14:09 10° WNW 16:17:54 58° SW 16:21:49 10° SE daylight
07 Nov - 09:35:38 10° SW 09:39:23 49° SE 09:43:02 10° ENE daylight
07 Nov - 11:16:20 10° W 11:19:55 38° NNW 11:23:27 10° NE daylight
07 Nov - 12:57:51 10° WNW 13:01:03 26° N 13:04:16 10° ENE daylight
07 Nov - 14:38:27 10° NW 14:42:06 47° NNE 14:45:51 10° E daylight
07 Nov - 16:18:59 10° WNW 16:22:31 36° SW 16:26:09 10° SSE daylight
08 Nov - 08:02:08 10° SSE 08:04:02 13° SE 08:05:55 10° ESE daylight
08 Nov - 09:40:08 10° SW 09:44:01 80° SSE 09:47:48 10° ENE daylight
08 Nov - 11:21:20 10° WNW 11:24:45 31° NNW 11:28:08 10° NE daylight
08 Nov - 13:02:41 10° NW 13:05:57 27° N 13:09:13 10° ENE daylight
08 Nov - 14:43:06 10° NW 14:46:52 67° NNE 14:50:42 10° ESE daylight
08 Nov - 16:24:02 10° W 16:27:03 22° SW 16:30:08 10° S daylight
